User: anonymous   Login
Location: Bretagne
(43.8474°N, 0.4650°W)
Time: 12:13:57
(UTC+00:00)
Language:

IRAS Rocket - Orbit

View from above orbital plane
View from above orbital plane
View from above satellite
View from above satellite

Ground track
Ground track

The orbit is defined by the following mean orbital elements,

1 13778U          26072.85144106 +.00000000 +00000-0 +40491-4 0 00007
2 13778 100.0760 114.2363 0021027 177.3766 182.7514 14.09694096    07
Epoch (UTC): 13 March 2026 20:26:04
Eccentricity: 0.0021027
inclination: 100.0760°
perigee height: 845 km
apogee height: 876 km
right ascension of ascending node: 114.2363°
argument of perigee: 177.3766°
revolutions per day: 14.09694096
mean anomaly at epoch: 182.7514°

The dashed part of the orbit path shows where the satellite is in the earth's shadow,  

DLR